Simultaneous Nadir Overpasses (SNOs) Predictions

Prediction of SNOs between NOAA-19 and NPP Satellite Orbit:

Table of predicted SNOs for the next 14.0 days since TLE Epoch: 9/17/2016
Index Date (NOAA-19) Time (NOAA-19) Lat,Lon (NOAA-19) SZA (NOAA-19 ) Date (NPP) Time (NPP) Lat,Lon (NPP) SZA (NPP ) Distance(km) Time Diff (sec)
1 09/22/2016 03:25:37 -80.96,-104.01 95.91 09/22/2016 03:26:52 -80.96,-104.05 95.94 0.65 75
2 09/22/2016 04:16:34 80.97, 63.47 84.09 09/22/2016 04:17:37 80.96, 63.38 84.06 1.74 63
3 09/22/2016 05:07:39 -80.96,-129.54 95.88 09/22/2016 05:08:22 -80.96,-129.43 95.91 1.98 43
4 09/22/2016 05:58:36 80.97, 37.94 84.12 09/22/2016 05:59:07 80.96, 38.00 84.09 1.20 31
5 09/22/2016 06:49:40 -80.97,-154.70 95.89 09/22/2016 06:49:52 -80.97,-154.82 95.88 2.00 12
6 09/22/2016
